(335510) = 2005 YO144

Discovered at Mount Lemmon on 2005-12-28 by Mt. Lemmon Survey.

Orbit

Orbit type: Hungaria

Note: WebGL enabled browser required.

epoch2024-03-31.0
epoch JD2460400.5
perihelion date2024-11-22.52199
perihelion JD2460637.02199
argument of perihelion (°)302.70966
ascending node (°)298.84141
inclination (°)16.54970
eccentricity0.0396519
perihelion distance (AU)1.8040472
Tisserand w.r.t. Jupiter3.9
ΔV w.r.t. Earth (km/sec)9.8
semimajor axis (AU)1.8785347
mean anomaly (°)269.45874
mean daily motion (°/day)0.38280270
aphelion distance (AU)1.953
period (years)2.57
P-vector [x]-0.44584166
P-vector [y]-0.69592394
P-vector [z]-0.56295211
Q-vector [x]0.85963246
Q-vector [y]-0.50820197
Q-vector [z]-0.05256228
absolute magnitude17.75
phase slope0.15
uncertainty0
referenceMPEC 2024-C181
observations used315
oppositions9
arc length (days)8453
first opposition used2000
last opposition used2024
residual rms (arc-secs)0.83
perturbers coarse indicatorM-v
perturbers precise indicator003Ek
first observation date used2000-12-23.0
last observation date used2024-02-14.0
computer nameMPCLINUX
JD of orbit computation2456161.745967
perihelion JD uncertainty (days)3.3831E-03
argument of perihelion uncertainty (°)1.2328E-03
ascending node uncertainty (°)2.4692E-05
inclination uncertainty (°)1.8592E-05
eccentricity uncertainty 4.8008E-07
perihelion distance uncertainty (AU)8.1156E-07
Minimum Orbit Intersection Distances (in AU)
for orbit epoch: 2460400.5, reference: E2024-GH2
Mercury1.34507
Venus1.09376
Earth0.81172
Mars0.28812
Jupiter3.16094
Saturn7.12541
Uranus16.6104
Neptune27.9791

Observations

323 total observations over interval: 2000 12 23.471402 – 2024 02 14.267490
These data are available for download (format description).

Date (UT) J2000 RA J2000 Dec Magn Location Ref
2000 12 23.471402 10 47 02.892 +01 14 51.66 21.25 V 645 – Apache Point-Sloan Digital Sky Survey MPS 161887
2000 12 23.474875 10 47 02.982 +01 14 48.53 21.92   645 – Apache Point-Sloan Digital Sky Survey MPS 161887
2001 03 02.34684 09 56 46.79 -11 33 12.6 20.9   608 – Haleakala-AMOS MPS 161887
2001 03 02.35690 09 56 45.84 -11 33 13.8 20.3   608 – Haleakala-AMOS MPS 161887
2001 03 02.36690 09 56 44.99 -11 33 14.0 20.0   608 – Haleakala-AMOS MPS 161887
2005 12 28.30623 09 05 14.06 +18 41 44.7 19.7 V 703 – Catalina Sky Survey MPS 159130
2005 12 28.31268 09 05 13.63 +18 41 42.0 20.3 V 703 – Catalina Sky Survey MPS 159130
2005 12 28.31913 09 05 13.34 +18 41 39.0 20.1 V 703 – Catalina Sky Survey MPS 159130
2005 12 28.32564 09 05 13.05 +18 41 35.9 20.1 V 703 – Catalina Sky Survey MPS 159130
2005 12 28.44779 09 05 06.50 +18 40 39.6 19.9 V G96 – Mt. Lemmon Survey MPS 157912
2005 12 28.45513 09 05 06.14 +18 40 36.2 20.1 V G96 – Mt. Lemmon Survey MPS 157912
2005 12 28.46267 09 05 05.71 +18 40 32.6 20.1 V G96 – Mt. Lemmon Survey MPS 157912
2005 12 28.47073 09 05 05.28 +18 40 29.2 20.0 V G96 – Mt. Lemmon Survey MPS 157912
2005 12 30.46494 09 03 19.62 +18 25 11.2 19.9 V 691 – Steward Observatory, Kitt Peak-Spacewatch MPS 157912
2005 12 30.49573 09 03 17.82 +18 24 56.8 20.4 V 691 – Steward Observatory, Kitt Peak-Spacewatch MPS 157912
2005 12 30.51309 09 03 16.80 +18 24 48.3 20.4 V 691 – Steward Observatory, Kitt Peak-Spacewatch MPS 157912
2006 01 04.45926 08 58 08.36 +17 46 55.8 20.5 V 691 – Steward Observatory, Kitt Peak-Spacewatch MPS 159130
2006 01 04.47669 08 58 07.14 +17 46 47.9 20.1 V 691 – Steward Observatory, Kitt Peak-Spacewatch MPS 159130
2006 01 04.49412 08 58 05.87 +17 46 39.4 20.2 V 691 – Steward Observatory, Kitt Peak-Spacewatch MPS 159130
2006 01 07.36963 08 54 38.70 +17 24 36.1 19.6 V G96 – Mt. Lemmon Survey MPS 159130
2006 01 07.37763 08 54 38.08 +17 24 32.4 19.6 V G96 – Mt. Lemmon Survey MPS 159130
2006 01 07.38561 08 54 37.44 +17 24 28.9 19.6 V G96 – Mt. Lemmon Survey MPS 159130
2006 01 07.39358 08 54 36.82 +17 24 25.0 19.7 V G96 – Mt. Lemmon Survey MPS 159130
2006 01 08.41900 08 53 18.25 +17 16 33.8 19.6 V 691 – Steward Observatory, Kitt Peak-Spacewatch MPS 159130
2006 01 08.43635 08 53 16.80 +17 16 25.4 20.1 V 691 – Steward Observatory, Kitt Peak-Spacewatch MPS 159130
2006 01 08.45362 08 53 15.45 +17 16 16.3 19.6 V 691 – Steward Observatory, Kitt Peak-Spacewatch MPS 159130
2006 01 22.24881 08 32 46.96 +15 29 44.8 18.8 R 699 – Lowell Observatory-LONEOS MPS 160534
2006 01 22.27622 08 32 44.19 +15 29 32.2   699 – Lowell Observatory-LONEOS MPS 160534
2006 01 22.30366 08 32 41.56 +15 29 17.8   699 – Lowell Observatory-LONEOS MPS 160534
2006 01 22.33107 08 32 38.77 +15 29 06.2   699 – Lowell Observatory-LONEOS MPS 160534
2006 01 23.28090 08 31 06.98 +15 21 45.4 19.1   704 – Lincoln Laboratory ETS, New Mexico MPS 160534
2006 01 23.30747 08 31 04.32 +15 21 33.3 19.5   704 – Lincoln Laboratory ETS, New Mexico MPS 160534
2006 01 23.32038 08 31 03.06 +15 21 26.8 19.8   704 – Lincoln Laboratory ETS, New Mexico MPS 160534
2006 01 23.33300 08 31 01.73 +15 21 20.5 19.7   704 – Lincoln Laboratory ETS, New Mexico MPS 160534
2006 01 24.15393 08 29 42.74 +15 15 00.4   691 – Steward Observatory, Kitt Peak-Spacewatch MPS 160534
2006 01 24.17120 08 29 41.00 +15 14 52.8   691 – Steward Observatory, Kitt Peak-Spacewatch MPS 160534
2006 01 24.19190 08 29 38.94 +15 14 43.1   691 – Steward Observatory, Kitt Peak-Spacewatch MPS 160534
2006 02 03.24839 08 13 40.69 +13 58 20.9 19.4 V G96 – Mt. Lemmon Survey MPS 162868
2006 02 03.25377 08 13 40.18 +13 58 18.3 19.6 V G96 – Mt. Lemmon Survey MPS 162868
2006 02 03.25923 08 13 39.64 +13 58 16.0 19.5 V G96 – Mt. Lemmon Survey MPS 162868
2006 02 03.26469 08 13 39.14 +13 58 13.4 19.5 V G96 – Mt. Lemmon Survey MPS 162868
2006 02 03.31458 08 13 34.50 +13 57 52.6 19.2   704 – Lincoln Laboratory ETS, New Mexico MPS 162868
2006 02 03.32794 08 13 33.19 +13 57 45.6 19.3   704 – Lincoln Laboratory ETS, New Mexico MPS 162868
2006 02 03.34122 08 13 31.94 +13 57 39.7 19.0   704 – Lincoln Laboratory ETS, New Mexico MPS 162868
2006 02 03.35534 08 13 30.62 +13 57 32.5 19.5   704 – Lincoln Laboratory ETS, New Mexico MPS 162868
2006 02 03.36919 08 13 29.30 +13 57 26.5 19.5   704 – Lincoln Laboratory ETS, New Mexico MPS 162868
2010 12 29.26184 06 27 33.86 +36 20 51.1 19.4   704 – Lincoln Laboratory ETS, New Mexico MPS 362988
2010 12 29.27498 06 27 32.44 +36 20 42.5 19.6   704 – Lincoln Laboratory ETS, New Mexico MPS 362988
2010 12 29.28812 06 27 31.05 +36 20 35.0 19.4   704 – Lincoln Laboratory ETS, New Mexico MPS 362988
2010 12 29.30129 06 27 29.54 +36 20 26.6 19.8   704 – Lincoln Laboratory ETS, New Mexico MPS 362988
2012 08 08.57854 22 19 05.081 +07 09 50.16 19.3 i F51 – Pan-STARRS 1, Haleakala MPS 429037
2012 08 08.59041 22 19 04.134 +07 09 56.62 19.2 i F51 – Pan-STARRS 1, Haleakala MPS 429037
2012 08 10.25768 22 16 55.03 +07 24 44.3 19.6 G G45 – Space Surveillance Telescope, Atom Site MPS 1609685
2012 08 10.26862 22 16 54.07 +07 24 50.6 19.5 G G45 – Space Surveillance Telescope, Atom Site MPS 1609685
2012 08 10.29123 22 16 52.20 +07 25 02.0 20.2 G G45 – Space Surveillance Telescope, Atom Site MPS 1609685
2012 08 10.36918 22 16 45.79 +07 25 42.4 20.2 G G45 – Space Surveillance Telescope, Atom Site MPS 1609685
2012 08 10.39574 22 16 43.61 +07 25 56.1 19.7 G G45 – Space Surveillance Telescope, Atom Site MPS 1609685
2012 08 12.32590 22 14 08.62 +07 41 54.6 19.5   704 – Lincoln Laboratory ETS, New Mexico MPS 429356
2012 08 12.33851 22 14 07.52 +07 41 58.8 19.8   704 – Lincoln Laboratory ETS, New Mexico MPS 429356
2012 08 12.35089 22 14 06.45 +07 42 05.7 20.1   704 – Lincoln Laboratory ETS, New Mexico MPS 429356
2012 08 12.36330 22 14 05.42 +07 42 11.9 19.9   704 – Lincoln Laboratory ETS, New Mexico MPS 429356
2012 08 12.37564 22 14 04.37 +07 42 18.2 19.9   704 – Lincoln Laboratory ETS, New Mexico MPS 429356
2012 08 13.36806 22 12 43.318 +07 50 01.56 19.9 g F51 – Pan-STARRS 1, Haleakala MPS 429356
2012 08 13.39085 22 12 41.352 +07 50 12.02 19.4 r F51 – Pan-STARRS 1, Haleakala MPS 429356
2012 08 13.40129 22 12 40.456 +07 50 16.81 19.3 r F51 – Pan-STARRS 1, Haleakala MPS 429356
2012 08 21.91197 22 00 32.10 +08 42 13.2 18.5 R 106 – Crni Vrh MPS 430083
2012 08 21.92316 22 00 31.10 +08 42 16.3 18.4 R 106 – Crni Vrh MPS 430083
2012 08 21.93444 22 00 30.11 +08 42 19.7 18.7 R 106 – Crni Vrh MPS 430083
2012 08 21.94562 22 00 29.12 +08 42 22.6 18.6 R 106 – Crni Vrh MPS 430083
2012 08 28.28419 21 51 25.88 +09 04 45.3 19.4 V G96 – Mt. Lemmon Survey MPS 444801
2012 08 28.29432 21 51 25.02 +09 04 46.7 19.3 V G96 – Mt. Lemmon Survey MPS 444801
2012 08 28.30447 21 51 24.12 +09 04 48.3 19.2 V G96 – Mt. Lemmon Survey MPS 444801
2012 08 28.31469 21 51 23.25 +09 04 49.7 19.4 V G96 – Mt. Lemmon Survey MPS 444801
2012 08 28.35736 21 51 19.51 +09 04 56.0 19.5 V G96 – Mt. Lemmon Survey MPS 430083
2012 08 28.36110 21 51 19.22 +09 04 56.5 19.4 V G96 – Mt. Lemmon Survey MPS 430083
2012 08 28.36485 21 51 18.90 +09 04 57.1 19.5 V G96 – Mt. Lemmon Survey MPS 430083
2012 08 28.36860 21 51 18.54 +09 04 57.3 19.4 V G96 – Mt. Lemmon Survey MPS 430083
2012 09 14.27358 21 31 13.98 +09 06 22.0 19.8   704 – Lincoln Laboratory ETS, New Mexico MPS 449567
2012 09 14.28792 21 31 13.16 +09 06 20.4 19.6   704 – Lincoln Laboratory ETS, New Mexico MPS 449567
2012 09 14.30216 21 31 12.42 +09 06 20.4 20.3   704 – Lincoln Laboratory ETS, New Mexico MPS 449567
2012 09 14.31676 21 31 11.43 +09 06 16.7 19.8   704 – Lincoln Laboratory ETS, New Mexico MPS 449567
2015 11 22.35942 04 04 57.77 +48 04 43.8 20.5 r G45 – Space Surveillance Telescope, Atom Site MPS 656917
2015 11 22.38253 04 04 55.32 +48 04 32.5 20.0 r G45 – Space Surveillance Telescope, Atom Site MPS 656917
2015 11 22.38835 04 04 54.70 +48 04 30.0 20.1 r G45 – Space Surveillance Telescope, Atom Site MPS 656917
2015 11 22.39425 04 04 54.06 +48 04 26.9 20.2 r G45 – Space Surveillance Telescope, Atom Site MPS 656917
2015 11 22.40001 04 04 53.48 +48 04 24.0 20.1 r G45 – Space Surveillance Telescope, Atom Site MPS 656917
2015 11 23.27120 04 03 26.50 +47 57 26.3 19.9 V G96 – Mt. Lemmon Survey MPS 656917
